User: anonymous   Login
Location: Rio Negrinho
(26.2394°S, 49.4999°W)
Time: 18:52:36
(UTC+00:00)
Language:

Hubble Space Telescope - Orbit

View from above orbital plane
View from above orbital plane
View from above satellite
View from above satellite

Ground track
Ground track

The orbit data is extracted from the following two-line orbital elements,

1 20580U 90037B   21265.37668113  .00000762  00000-0  35051-4 0  9998
2 20580  28.4694 143.7214 0002728  30.3938 132.3946 15.09742944525653
Epoch (UTC): 22 September 2021 09:02:25
Eccentricity: 0.0002728
inclination: 28.4694°
perigee height: 535 km
apogee height: 539 km
right ascension of ascending node: 143.7214°
argument of perigee: 30.3938°
revolutions per day: 15.09742944
mean anomaly at epoch: 132.3946°
orbit number at epoch: 52565

The dashed part of the orbit path shows where the satellite is in the earth's shadow,  

DLR